TimeEST,TemperatureF,Dew PointF,Humidity,Sea Level PressureIn,VisibilityMPH,Wind Direction,Wind SpeedMPH,Gust SpeedMPH,PrecipitationIn,Events,Conditions,WindDirDegrees,DateUTC
12:51 AM,55.0,33.1,43,29.95,10.0,SSW,9.2,18.4,N/A,,Overcast,200,2011-11-14 05:51:00
1:51 AM,55.0,34.0,45,29.94,10.0,SSW,12.7,-,N/A,,Scattered Clouds,210,2011-11-14 06:51:00
2:51 AM,53.1,35.1,50,29.95,10.0,SW,8.1,-,N/A,,Mostly Cloudy,230,2011-11-14 07:51:00
3:51 AM,53.1,37.0,55,29.95,10.0,SW,11.5,-,N/A,,Mostly Cloudy,220,2011-11-14 08:51:00
4:51 AM,53.1,39.0,59,29.95,10.0,SW,10.4,-,N/A,,Scattered Clouds,220,2011-11-14 09:51:00
5:51 AM,52.0,39.9,63,29.94,10.0,SW,5.8,-,N/A,,Mostly Cloudy,220,2011-11-14 10:51:00
6:51 AM,53.1,41.0,64,29.94,10.0,SW,6.9,-,N/A,,Mostly Cloudy,220,2011-11-14 11:51:00
7:51 AM,54.0,43.0,66,29.95,10.0,SW,8.1,-,N/A,,Mostly Cloudy,230,2011-11-14 12:51:00
8:51 AM,57.0,44.1,62,29.95,10.0,SW,11.5,-,N/A,,Mostly Cloudy,230,2011-11-14 13:51:00
9:51 AM,60.1,45.0,57,29.94,10.0,WSW,16.1,-,N/A,,Mostly Cloudy,240,2011-11-14 14:51:00
10:51 AM,63.0,45.0,52,29.92,10.0,WSW,13.8,-,N/A,,Mostly Cloudy,240,2011-11-14 15:51:00
11:51 AM,66.0,46.0,48,29.89,10.0,WSW,9.2,-,N/A,,Mostly Cloudy,250,2011-11-14 16:51:00
12:51 PM,68.0,48.0,49,29.85,10.0,SSW,9.2,-,N/A,,Mostly Cloudy,210,2011-11-14 17:51:00
1:51 PM,70.0,48.0,46,29.83,10.0,South,10.4,-,N/A,,Mostly Cloudy,180,2011-11-14 18:51:00
2:51 PM,70.0,48.9,47,29.81,10.0,South,10.4,-,N/A,,Mostly Cloudy,190,2011-11-14 19:51:00
3:51 PM,66.9,50.0,54,29.81,10.0,SSE,4.6,-,N/A,,Mostly Cloudy,150,2011-11-14 20:51:00
4:51 PM,66.0,50.0,56,29.79,10.0,SSE,3.5,-,N/A,,Mostly Cloudy,160,2011-11-14 21:51:00
5:51 PM,64.9,50.0,58,29.79,10.0,South,8.1,-,N/A,,Overcast,190,2011-11-14 22:51:00
6:51 PM,64.9,51.1,61,29.78,10.0,South,10.4,-,N/A,,Overcast,190,2011-11-14 23:51:00
7:51 PM,64.9,51.1,61,29.78,10.0,SSW,11.5,-,N/A,,Overcast,200,2011-11-15 00:51:00
8:51 PM,64.4,51.8,64,29.77,10.0,South,11.5,-,N/A,,Overcast,190,2011-11-15 01:51:00
9:51 PM,64.0,51.1,63,29.75,10.0,SSW,16.1,21.9,N/A,,Overcast,200,2011-11-15 02:51:00
10:51 PM,64.0,52.0,65,29.75,10.0,SSW,13.8,-,N/A,,Mostly Cloudy,210,2011-11-15 03:51:00
11:51 PM,63.0,52.0,67,29.75,10.0,SSW,9.2,-,N/A,,Mostly Cloudy,210,2011-11-15 04:51:00